| time (UTC) | temp C | wind direction | speed KPH | gust KPH | rain 1hr cm | rain 24hr cm | rain mn cm | humidity % | barometer mb |
| 20260509005806 | 13 | 209 | 16.1 | 24.1 | 0.00 | 0.00 | 0.00 | 74 | 1011.6 |
| 20260509004806 | 13 | 214 | 11.3 | 19.3 | 0.00 | 0.00 | 0.00 | 74 | 1011.5 |
| 20260509003306 | 13 | 213 | 11.3 | 29.0 | 0.00 | 0.00 | 0.00 | 73 | 1011.4 |
| 20260509002807 | 13 | 221 | 16.1 | 32.2 | 0.00 | 0.00 | 0.00 | 73 | 1011.4 |
| 20260509002306 | 13 | 215 | 17.7 | 32.2 | 0.00 | 0.00 | 0.00 | 73 | 1011.4 |
| 20260509000306 | 13 | 214 | 12.9 | 25.7 | 0.00 | 0.00 | 0.00 | 71 | 1011.3 |
| 20260508235806 | 13 | 216 | 11.3 | 22.5 | 0.00 | 0.00 | 0.00 | 71 | 1011.3 |
| 20260508234306 | 13 | 206 | 16.1 | 32.2 | 0.00 | 0.00 | 0.00 | 69 | 1011.2 |
| 20260508233806 | 13 | 210 | 16.1 | 27.4 | 0.00 | 0.00 | 0.00 | 68 | 1011.2 |
| 20260508232805 | 13 | 221 | 14.5 | 25.7 | 0.00 | 0.00 | 0.00 | 67 | 1011.1 |
| 20260508232307 | 13 | 207 | 20.9 | 32.2 | 0.00 | 0.00 | 0.00 | 67 | 1011.1 |
| 20260508225307 | 13 | 206 | 20.9 | 35.4 | 0.00 | 0.00 | 0.00 | 63 | 1010.8 |
| 20260508215805 | 13 | 194 | 20.9 | 38.6 | 0.00 | 0.00 | 0.00 | 67 | 1010.8 |
| 20260508213306 | 13 | 200 | 20.9 | 35.4 | 0.00 | 0.00 | 0.00 | 65 | 1010.7 |
| 20260508212306 | 13 | 194 | 16.1 | 37.0 | 0.00 | 0.00 | 0.00 | 64 | 1010.8 |
| 20260508211306 | 13 | 210 | 17.7 | 32.2 | 0.00 | 0.00 | 0.00 | 64 | 1010.7 |
| 20260508210306 | 13 | 196 | 19.3 | 35.4 | 0.00 | 0.00 | 0.00 | 63 | 1010.6 |
| 20260508204805 | 13 | 203 | 22.5 | 41.8 | 0.00 | 0.00 | 0.00 | 63 | 1010.7 |
| 20260508204307 | 13 | 211 | 22.5 | 29.0 | 0.00 | 0.00 | 0.00 | 63 | 1010.8 |
| 20260508203306 | 13 | 189 | 22.5 | 33.8 | 0.00 | 0.00 | 0.00 | 66 | 1010.7 |
| 20260508202805 | 13 | 188 | 17.7 | 38.6 | 0.00 | 0.00 | 0.00 | 64 | 1010.7 |
| 20260508200806 | 13 | 194 | 19.3 | 29.0 | 0.00 | 0.00 | 0.00 | 72 | 1010.6 |
| 20260508193805 | 13 | 197 | 20.9 | 32.2 | 0.00 | 0.00 | 0.00 | 72 | 1010.9 |
| 20260508193305 | 13 | 179 | 22.5 | 38.6 | 0.00 | 0.00 | 0.00 | 71 | 1010.8 |
| 20260508192306 | 13 | 183 | 19.3 | 32.2 | 0.00 | 0.00 | 0.00 | 71 | 1010.9 |
| 20260508191306 | 13 | 185 | 19.3 | 32.2 | 0.00 | 0.00 | 0.00 | 69 | 1011.0 |
| 20260508190806 | 13 | 186 | 20.9 | 37.0 | 0.00 | 0.00 | 0.00 | 68 | 1011.1 |
| 20260508185306 | 13 | 183 | 14.5 | 22.5 | 0.00 | 0.00 | 0.00 | 69 | 1011.5 |
| 20260508184806 | 13 | 202 | 16.1 | 33.8 | 0.00 | 0.00 | 0.00 | 68 | 1011.6 |
| 20260508183305 | 13 | 186 | 16.1 | 32.2 | 0.00 | 0.00 | 0.00 | 69 | 1011.6 |
| 20260508182307 | 13 | 190 | 16.1 | 37.0 | 0.00 | 0.00 | 0.00 | 65 | 1011.7 |
| 20260508181305 | 13 | 184 | 19.3 | 29.0 | 0.00 | 0.00 | 0.00 | 65 | 1011.7 |
| 20260508180805 | 13 | 193 | 16.1 | 32.2 | 0.00 | 0.00 | 0.00 | 64 | 1011.6 |
| 20260508180305 | 13 | 192 | 16.1 | 25.7 | 0.00 | 0.00 | 0.00 | 65 | 1011.7 |
| 20260508175306 | 14 | 196 | 19.3 | 32.2 | 0.00 | 0.00 | 0.00 | 66 | 1011.7 |
| 20260508172806 | 14 | 193 | 19.3 | 27.4 | 0.00 | 0.00 | 0.00 | 62 | 1012.0 |
| 20260508172308 | 13 | 202 | 24.1 | 35.4 | 0.00 | 0.00 | 0.00 | 59 | 1012.1 |
| 20260508170806 | 13 | 195 | 16.1 | 27.4 | 0.00 | 0.00 | 0.00 | 66 | 1012.0 |
| 20260508165805 | 13 | 188 | 14.5 | 29.0 | 0.00 | 0.00 | 0.00 | 69 | 1012.1 |
| 20260508165307 | 13 | 187 | 11.3 | 29.0 | 0.00 | 0.00 | 0.00 | 68 | 1012.1 |
| 20260508163805 | 14 | 223 | 14.5 | 22.5 | 0.00 | 0.00 | 0.00 | 64 | 1012.3 |
| 20260508161305 | 17 | 224 | 11.3 | 19.3 | 0.00 | 0.00 | 0.00 | 42 | 1012.5 |
| 20260508155807 | 16 | 256 | 9.7 | 20.9 | 0.00 | 0.00 | 0.00 | 41 | 1012.5 |
| 20260508155306 | 17 | 267 | 4.8 | 9.7 | 0.00 | 0.00 | 0.00 | 41 | 1012.6 |
| 20260508154305 | 16 | 282 | 8.0 | 29.0 | 0.00 | 0.00 | 0.00 | 44 | 1012.8 |
| 20260508152306 | 16 | 307 | 6.4 | 14.5 | 0.00 | 0.00 | 0.00 | 43 | 1013.0 |
| 20260508151805 | 16 | 258 | 8.0 | 11.3 | 0.00 | 0.00 | 0.00 | 42 | 1013.1 |
| 20260508151305 | 15 | 249 | 8.0 | 14.5 | 0.00 | 0.00 | 0.00 | 45 | 1013.2 |
| 20260508150305 | 15 | 245 | 4.8 | 8.0 | 0.00 | 0.00 | 0.00 | 46 | 1013.2 |
| 20260508145806 | 15 | 270 | 3.2 | 14.5 | 0.00 | 0.00 | 0.00 | 44 | 1013.2 |
| 20260508145307 | 15 | 289 | 1.6 | 4.8 | 0.00 | 0.00 | 0.00 | 44 | 1013.1 |
| 20260508143806 | 15 | 335 | 3.2 | 4.8 | 0.00 | 0.00 | 0.00 | 45 | 1013.1 |
| 20260508141805 | 15 | 292 | 3.2 | 4.8 | 0.00 | 0.00 | 0.00 | 46 | 1013.2 |
| 20260508140308 | 15 | 344 | 3.2 | 8.0 | 0.00 | 0.00 | 0.00 | 48 | 1013.1 |
| 20260508135805 | 14 | 342 | 4.8 | 11.3 | 0.00 | 0.00 | 0.00 | 50 | 1013.2 |
| 20260508134307 | 14 | 284 | 3.2 | 11.3 | 0.00 | 0.00 | 0.00 | 53 | 1013.3 |
| 20260508133308 | 13 | 274 | 3.2 | 8.0 | 0.00 | 0.00 | 0.00 | 54 | 1013.4 |
| 20260508132306 | 13 | 316 | 3.2 | 4.8 | 0.00 | 0.00 | 0.00 | 52 | 1013.3 |
| 20260508131804 | 13 | 280 | 3.2 | 8.0 | 0.00 | 0.00 | 0.00 | 56 | 1013.2 |
| 20260508131305 | 13 | 284 | 4.8 | 8.0 | 0.00 | 0.00 | 0.00 | 55 | 1013.3 |
| 20260508130805 | 13 | 279 | 4.8 | 9.7 | 0.00 | 0.00 | 0.00 | 57 | 1013.3 |
| 20260508130305 | 13 | 296 | 3.2 | 8.0 | 0.00 | 0.00 | 0.00 | 60 | 1013.3 |
| 20260508124804 | 12 | 259 | 4.8 | 9.7 | 0.00 | 0.00 | 0.00 | 67 | 1013.3 |
| 20260508123305 | 12 | 274 | 3.2 | 4.8 | 0.00 | 0.00 | 0.00 | 71 | 1013.3 |
| 20260508121305 | 11 | 261 | 3.2 | 4.8 | 0.00 | 0.00 | 0.00 | 74 | 1013.2 |
| 20260508120805 | 11 | 287 | 3.2 | 8.0 | 0.00 | 0.00 | 0.00 | 74 | 1013.3 |
| 20260508120304 | 10 | 294 | 1.6 | 4.8 | 0.00 | 0.00 | 0.00 | 75 | 1013.3 |
| 20260508115306 | 10 | 280 | 3.2 | 8.0 | 0.00 | 0.00 | 0.00 | 76 | 1013.2 |
| 20260508114304 | 10 | 301 | 3.2 | 8.0 | 0.00 | 0.00 | 0.00 | 76 | 1013.2 |
| 20260508113305 | 10 | 280 | 3.2 | 8.0 | 0.00 | 0.00 | 0.00 | 76 | 1013.0 |
| 20260508111305 | 10 | 350 | 4.8 | 14.5 | 0.00 | 0.00 | 0.00 | 76 | 1012.6 |
| 20260508110305 | 10 | 357 | 9.7 | 16.1 | 0.00 | 0.00 | 0.00 | 76 | 1012.5 |
| 20260508105805 | 10 | 352 | 8.0 | 16.1 | 0.00 | 0.00 | 0.00 | 76 | 1012.5 |
| 20260508105306 | 10 | 332 | 8.0 | 14.5 | 0.00 | 0.00 | 0.00 | 76 | 1012.5 |
| 20260508104805 | 10 | 331 | 6.4 | 19.3 | 0.00 | 0.00 | 0.00 | 77 | 1012.4 |
| 20260508104304 | 10 | 352 | 11.3 | 19.3 | 0.00 | 0.00 | 0.00 | 76 | 1012.4 |
| 20260508103804 | 10 | 329 | 9.7 | 16.1 | 0.00 | 0.00 | 0.00 | 77 | 1012.3 |
| 20260508102805 | 10 | 10 | 9.7 | 19.3 | 0.00 | 0.00 | 0.00 | 78 | 1012.2 |
| 20260508101305 | 10 | 338 | 14.5 | 24.1 | 0.00 | 0.00 | 0.00 | 78 | 1012.1 |
| 20260508094805 | 10 | 340 | 12.9 | 22.5 | 0.00 | 0.00 | 0.00 | 79 | 1011.8 |
| 20260508093305 | 10 | 6 | 19.3 | 29.0 | 0.00 | 0.00 | 0.00 | 78 | 1011.4 |
| 20260508091805 | 10 | 350 | 16.1 | 29.0 | 0.00 | 0.00 | 0.00 | 80 | 1011.2 |
| 20260508090805 | 10 | 8 | 16.1 | 32.2 | 0.00 | 0.00 | 0.00 | 80 | 1010.8 |
| 20260508090305 | 10 | 355 | 16.1 | 27.4 | 0.00 | 0.00 | 0.00 | 82 | 1010.7 |
| 20260508085307 | 10 | 351 | 16.1 | 27.4 | 0.00 | 0.00 | 0.00 | 84 | 1010.6 |
| 20260508084805 | 10 | 343 | 14.5 | 22.5 | 0.00 | 0.00 | 0.00 | 85 | 1010.5 |
| 20260508083305 | 10 | 343 | 16.1 | 27.4 | 0.00 | 0.00 | 0.00 | 87 | 1010.2 |
| 20260508082306 | 10 | 319 | 8.0 | 19.3 | 0.00 | 0.00 | 0.00 | 88 | 1010.0 |
| 20260508081805 | 10 | 291 | 8.0 | 19.3 | 0.00 | 0.00 | 0.00 | 88 | 1009.8 |
| 20260508075805 | 10 | 278 | 9.7 | 19.3 | 0.00 | 0.00 | 0.00 | 87 | 1009.3 |
| 20260508072307 | 10 | 270 | 9.7 | 16.1 | 0.00 | 0.03 | 0.00 | 87 | 1008.7 |
| 20260508071805 | 10 | 257 | 9.7 | 16.1 | 0.00 | 0.05 | 0.00 | 87 | 1008.7 |
| 20260508071304 | 10 | 265 | 11.3 | 19.3 | 0.00 | 0.18 | 0.00 | 86 | 1008.7 |
| 20260508070805 | 10 | 264 | 11.3 | 19.3 | 0.00 | 0.18 | 0.00 | 86 | 1008.7 |
| 20260508065805 | 10 | 262 | 16.1 | 24.1 | 0.00 | 0.20 | 0.00 | 86 | 1008.7 |
| 20260508064305 | 10 | 253 | 14.5 | 19.3 | 0.00 | 0.30 | 0.00 | 86 | 1008.6 |
| 20260508063804 | 10 | 258 | 14.5 | 22.5 | 0.00 | 0.36 | 0.00 | 87 | 1008.6 |
| 20260508063305 | 10 | 257 | 14.5 | 20.9 | 0.00 | 0.36 | 0.00 | 87 | 1008.6 |
| 20260508062805 | 10 | 255 | 11.3 | 19.3 | 0.00 | 0.36 | 0.00 | 87 | 1008.7 |
| 20260508062306 | 10 | 259 | 11.3 | 19.3 | 0.00 | 0.36 | 0.00 | 87 | 1008.7 |
| 20260508054804 | 11 | 254 | 16.1 | 20.9 | 0.00 | 0.36 | 0.00 | 86 | 1008.6 |
| 20260508053305 | 11 | 249 | 11.3 | 24.1 | 0.00 | 0.36 | 0.00 | 85 | 1008.6 |
| 20260508052805 | 11 | 259 | 14.5 | 20.9 | 0.00 | 0.36 | 0.00 | 85 | 1008.6 |
| 20260508052307 | 11 | 255 | 14.5 | 24.1 | 0.00 | 0.36 | 0.00 | 85 | 1008.7 |
| 20260508050806 | 11 | 251 | 11.3 | 22.5 | 0.00 | 0.36 | 0.00 | 86 | 1008.7 |
| 20260508050304 | 11 | 241 | 11.3 | 20.9 | 0.00 | 0.36 | 0.00 | 86 | 1008.7 |
| 20260508045805 | 11 | 248 | 14.5 | 25.7 | 0.00 | 0.36 | 0.00 | 86 | 1008.7 |
| 20260508044805 | 11 | 237 | 11.3 | 22.5 | 0.00 | 0.36 | 0.00 | 86 | 1008.7 |
| 20260508044305 | 11 | 242 | 14.5 | 22.5 | 0.00 | 0.36 | 0.00 | 86 | 1008.7 |
| 20260508043305 | 11 | 248 | 14.5 | 24.1 | 0.00 | 0.36 | 0.00 | 86 | 1008.6 |
| 20260508040305 | 12 | 237 | 12.9 | 20.9 | 0.00 | 0.36 | 0.00 | 87 | 1008.7 |
| 20260508034805 | 11 | 234 | 12.9 | 19.3 | 0.00 | 0.36 | 0.36 | 92 | 1008.8 |
| 20260508033804 | 11 | 190 | 8.0 | 14.5 | 0.00 | 0.36 | 0.36 | 92 | 1008.7 |
| 20260508033304 | 11 | 204 | 8.0 | 16.1 | 0.00 | 0.36 | 0.36 | 92 | 1008.8 |
| 20260508032306 | 11 | 195 | 8.0 | 16.1 | 0.00 | 0.36 | 0.36 | 92 | 1009.0 |
| 20260508030805 | 10 | 187 | 9.7 | 16.1 | 0.00 | 0.36 | 0.36 | 91 | 1008.8 |
| 20260508025306 | 10 | 178 | 4.8 | 8.0 | 0.00 | 0.36 | 0.36 | 90 | 1008.9 |
| 20260508023805 | 11 | 190 | 4.8 | 12.9 | 0.00 | 0.36 | 0.36 | 90 | 1008.9 |
| 20260508021805 | 10 | 194 | 8.0 | 16.1 | 0.00 | 0.36 | 0.36 | 90 | 1009.1 |
| 20260508021305 | 10 | 194 | 9.7 | 19.3 | 0.00 | 0.36 | 0.36 | 89 | 1009.0 |
| 20260508015804 | 10 | 196 | 8.0 | 19.3 | 0.00 | 0.36 | 0.36 | 89 | 1008.9 |
| 20260508015306 | 10 | 190 | 6.4 | 11.3 | 0.00 | 0.36 | 0.36 | 89 | 1008.8 |
| 20260508012804 | 11 | 186 | 9.7 | 19.3 | 0.00 | 0.36 | 0.36 | 88 | 1008.6 |
| 20260508011804 | 10 | 191 | 9.7 | 19.3 | 0.00 | 0.36 | 0.36 | 88 | 1008.6 |
| 20260508010804 | 10 | 196 | 9.7 | 19.3 | 0.00 | 0.36 | 0.36 | 88 | 1008.4 |